This is the latest recevied weather packets stored in our database for station/object SP3PDK-1. If no packets are shown the sender has not sent any weather packets the latest 10 day(s).
| Time | Temp. | Humidity | Pressure | Rain* | Wind** | Luminosity | Snow |
|---|---|---|---|---|---|---|---|
| 1777199653 | 14.44° C | 30% | 1022.2 hPa | - | - | - | - |
| 1777198458 | 14.44° C | 30% | 1022.1 hPa | - | - | - | - |
| 1777197858 | 15° C | 29% | 1022 hPa | - | - | - | - |
| 1777196655 | 13.33° C | 31% | 1022 hPa | - | - | - | - |
| 1777195454 | 12.78° C | 33% | 1021.7 hPa | - | - | - | - |
| 1777194854 | 13.89° C | 31% | 1021.7 hPa | - | - | - | - |
| 1777194253 | 13.33° C | 34% | 1021.4 hPa | - | - | - | - |
| 1777193058 | 13.33° C | 36% | 1021.4 hPa | - | - | - | - |
| 1777192458 | 12.22° C | 37% | 1021.5 hPa | - | - | - | - |
| 1777191857 | 13.33° C | 40% | 1021.3 hPa | - | - | - | - |
| 1777191258 | 12.78° C | 42% | 1021.2 hPa | - | - | - | - |
| 1777190655 | 12.22° C | 44% | 1021.2 hPa | - | - | - | - |
| 1777190054 | 12.78° C | 46% | 1021 hPa | - | - | - | - |
| 1777189454 | 12.22° C | 46% | 1021 hPa | - | - | - | - |
| 1777188854 | 12.78° C | 47% | 1020.8 hPa | - | - | - | - |
| 1777188254 | 12.22° C | 48% | 1020.7 hPa | - | - | - | - |
| 1777187654 | 11.67° C | 50% | 1020.6 hPa | - | - | - | - |
| 1777187058 | 11.11° C | 50% | 1020.5 hPa | - | - | - | - |
| 1777186453 | 11.11° C | 51% | 1020.4 hPa | - | - | - | - |
| 1777185854 | 11.11° C | 51% | 1020.3 hPa | - | - | - | - |
| 1777185259 | 11.67° C | 51% | 1020.1 hPa | - | - | - | - |
| 1777184654 | 11.67° C | 53% | 1020 hPa | - | - | - | - |
| 1777184054 | 10.56° C | 55% | 1019.9 hPa | - | - | - | - |
| 1777183454 | 10.56° C | 54% | 1019.7 hPa | - | - | - | - |
| 1777182856 | 10.56° C | 55% | 1019.5 hPa | - | - | - | - |
* Rain since midnight (hover to see other rain measurements)
** Current wind speed in m/s (hover to see current wind gust speed)